{"data":{"norad_id":26580,"epoch":"2026-09-19T16:19:47.508672Z","epoch_age_seconds":82883,"freshness":"FRESH","line1":"1 26580U 00067A   26262.68041098  .00000084  00000+0  00000+0 0  9998","line2":"2 26580   0.3876  83.5793 0004324 103.4496 281.4719  1.00272415 94841","mean_motion":1.00272415,"eccentricity":0.0004324,"inclination_deg":0.3876,"raan_deg":83.5793,"arg_perigee_deg":103.4496,"mean_anomaly_deg":281.4719,"bstar":0,"rev_number":9484,"period_min":1436.0878811984,"perigee_km":35768.186396512,"apogee_km":35804.650303979,"semimajor_km":42164.555350246,"source":"CELESTRAK","updated_at":"2026-09-20T09:00:35.636769Z"}}